[[{"header":{"parameterUnit":"m.s-1","parameterCategory":1,"la1":30.2991,"la2":30.254,"lo1":-89.0895,"lo2":-89.0444,"dy":0.0017,"dx":0.0017,"nx":28,"ny":28,"refTime":"2024-04-08T21:00:00:Z","depth":0,"parameterNumber":2,"parameterNumberName":"U-component_of_WINDS"},"data":[0,0,0,0,0,0,0,0,0,0,0,0,0,0,0,0,0,0,0,0,0,0,0,0,0,0,0,0,0,0,0,0,0,0,0,0,0,0,0,0,0,0,0,0,0,0,0,0,0,0,0,0,0,0,0,0,0,0,-3.9276,-3.9279,0,-3.9551,-3.9554,-3.9557,-3.9695,-3.9695,-3.9695,-3.9695,-3.9974,-3.9981,-3.9988,0,0,0,0,0,0,0,0,0,0,0,0,0,-3.8867,-3.8874,-3.9276,-3.9279,-3.9283,-3.955,-3.9554,-3.9558,-3.9695,-3.9695,-3.9695,-3.9695,-3.9971,-3.998,-3.9989,0,0,0,0,0,0,0,0,0,0,0,0,0,-3.9083,-3.8876,-3.9275,-3.9383,-3.9396,-3.9549,-3.9554,-3.9559,-3.9695,-3.9695,-3.9695,-3.9695,-3.9969,-3.9979,-3.999,-4.0056,0,0,-4.0024,-4.0029,0,0,0,0,0,0,0,0,-3.9071,-3.9098,-3.9364,-3.9376,-3.939,-3.9589,-3.9512,-3.9725,-3.9695,-3.9581,-3.9695,-3.9695,-3.9845,-3.9867,-3.9918,-4.0069,-4.0081,-4.0025,-4.0032,-4.0036,-4.0039,0,0,0,0,0,0,0,-3.9056,-3.9087,-3.9384,-3.9368,-3.9384,-3.9417,-3.9448,-3.9553,-3.9709,-3.9591,-3.9602,-3.9632,-3.9853,-3.9907,-3.9925,-4.0085,-4.0025,-4.0034,-4.0041,-4.0046,-4.0305,-4.0306,0,0,0,0,0,0,-3.9024,-3.9074,-3.9376,-3.9393,-3.9228,-3.9425,-3.9459,-3.9525,-3.9709,-3.9737,-3.9632,-3.9638,-3.9888,-3.9912,-3.9936,-4.0026,-4.0036,-4.0047,-4.0053,-4.0305,-4.0305,-4.0306,0,0,0,0,0,0,-3.9014,-3.9049,-3.9365,-3.9236,-3.9279,-3.9432,-3.9504,-3.953,-3.9585,-3.974,-3.9768,-3.9659,-3.9889,-3.992,-4.0026,-4.0038,-4.0052,-4.0062,-4.0305,-4.0305,-4.0306,-4.0206,0,0,0,0,0,0,-3.9002,-3.9045,-3.9072,-3.9236,-3.9285,-3.945,-3.9505,-3.9535,-3.9604,-3.9614,-3.9772,-3.9799,-3.9891,-4.0008,-4.0036,-4.0053,-4.007,-4.0304,-4.0305,-4.0305,-4.0209,-4.0203,-4.0198,0,0,0,0,0,-3.8987,-3.9033,-3.9073,-3.9109,-3.9323,-3.9451,-3.9479,-3.9585,-3.9604,-3.9632,-3.9732,-3.9794,-4.0031,-4.0018,-4.0051,-4.0071,-4.0304,-4.0305,-4.0305,-4.0211,-4.0204,-4.0198,0,0,0,0,0,0,-3.8866,-3.9056,-3.9103,-3.9203,-3.931,-3.9474,-3.9513,-3.9574,-3.9677,-3.9682,-3.9809,-3.9844,-3.9938,-4.0015,-3.9997,-4.0145,-4.0174,-4.0181,-4.0091,-4.0085,-4.008,-4.006,-4.0079,0,0,0,0,0,-3.8851,-3.894,-3.9101,-3.9174,-3.9225,-3.9359,-3.9419,-3.9492,-3.9607,-3.9652,-3.976,-3.9869,-3.9968,-4.0031,-4.0131,-4.022,-4.0257,-4.025,-4.0244,-4.0239,-4.0244,-4.0298,-4.0297,-4.0308,-4.0308,-4.0308,0,0,-3.8821,-3.8936,-3.8984,-3.9152,-3.9244,-3.9332,-3.9396,-3.9487,-3.9554,-3.9666,-3.9773,-3.9855,-3.9985,-4.0082,-4.0131,-4.015,-4.0249,-4.024,-4.0235,-4.0243,-4.0298,-4.0297,-4.0296,-4.0308,-4.0308,-4.0308,0,0,-3.8812,-3.8907,-3.8979,-3.9069,-3.9206,-3.9295,-3.9312,-3.9467,-3.9526,-3.9635,-3.9722,-3.9802,-3.9971,-4.006,-4.0127,-4.0151,-4.0211,-4.0179,-4.0151,-4.0201,-4.02,-4.02,-4.0209,-4.0211,-4.0184,-4.0183,-4.0183,0,-3.8757,-3.8894,-3.9007,-3.9094,-3.9165,-3.9271,-3.9344,-3.9426,-3.9588,-3.9635,-3.9654,-3.9868,-3.9962,-4.0083,-4.0088,-4.0139,-4.0162,-4.0162,-4.0191,-4.0193,-4.0194,-4.0204,-4.0207,-4.0179,-4.0179,-4.018,-4.018,0,-3.882,-3.8914,-3.8955,-3.911,-3.9186,-3.9265,-3.9389,-3.9452,-3.9518,-3.9605,-3.9714,-3.9832,-3.9957,-3.9991,-4.0056,-4.0121,-4.0128,-4.0167,-4.0199,-4.0186,-4.0198,-4.0203,-4.0172,-4.0174,-4.0175,-4.0176,0,0,-3.8743,-3.896,-3.8973,-3.9045,-3.9204,-3.9278,-3.9361,-3.9485,-3.9537,-3.9645,-3.9718,-3.9858,-3.9896,-3.9972,-4.0048,-4.0092,-4.0103,-4.0126,-4.0131,-4.0118,-4.0183,-4.0152,-4.0155,-4.0144,-4.0146,-4.0146,-4.0172,0,-3.8756,-3.8912,-3.9016,-3.913,-3.9219,-3.932,-3.9393,-3.9498,-3.9581,-3.9667,-3.9759,-3.9856,-3.9898,-3.9945,-3.9993,-4.0091,-4.0118,-4.0091,-4.0214,-4.0217,-4.0179,-4.0161,-4.013,-4.0148,-4.0177,-4.0178,-4.0179,0,-3.8793,-3.8899,-3.9022,-3.9172,-3.9213,-3.9277,-3.9399,-3.948,-3.9601,-3.9658,-3.9742,-3.982,-3.9912,-3.9935,-4.0063,-4.0043,-4.0099,-4.0154,-4.0158,-4.0174,-4.0197,-4.0177,-4.0157,-4.0159,-4.0187,-4.0186,-4.0185,0,-3.8725,-3.8898,-3.8995,-3.9053,-3.923,-3.9272,-3.9348,-3.9469,-3.9537,-3.9643,-3.9688,-3.9803,-3.9865,-3.9952,-4.0058,-4.0065,-4.0176,-4.0208,-4.0226,-4.0223,-4.0246,-4.0243,-4.0234,-4.028,-4.028,-4.028,-4.028,0,-3.873,-3.8801,-3.8967,-3.9026,-3.9109,-3.9227,-3.9306,-3.939,-3.9496,-3.9573,-3.9668,-3.9738,-3.9873,-3.996,-4.0043,-4.0137,-4.0164,-4.0213,-4.0235,-4.0205,-4.0199,-4.0244,-4.0246,-4.0281,-4.028,-4.028,-4.028,0,-3.8668,-3.8782,-3.8894,-3.9052,-3.9093,-3.9147,-3.9283,-3.9344,-3.9432,-3.9528,-3.9557,-3.9695,-3.9802,-3.9916,-4.0061,-4.0117,-4.0207,-4.0237,-4.0166,-4.0179,-4.019,-4.0188,-4.0211,-4.022,-4.0258,-4.0257,-4.0257,0,-3.8664,-3.8721,-3.8886,-3.8944,-3.9018,-3.9111,-3.9181,-3.9299,-3.9367,-3.951,-3.9553,-3.9667,-3.9765,-3.993,-4.0043,-4.0155,-4.0188,-4.0189,-4.0206,-4.0174,-4.0189,-4.0185,-4.0191,-4.0183,-4.0182,-4.0181,-4.0181,0,-3.8644,-3.8698,-3.8795,-3.8912,-3.8993,-3.909,-3.9191,-3.9234,-3.9372,-3.9444,-3.9555,-3.963,-3.9779,-3.9891,-4.0016,-4.0094,-4.016,-4.0174,-4.0185,-4.0156,-4.0113,-4.0137,-4.0152,-4.0174,-4.0174,-4.0175,-4.0175,-4.0176,-3.8612,-3.8668,-3.8792,-3.8898,-3.8986,-3.9079,-3.9144,-3.924,-3.9335,-3.9465,-3.9529,-3.9639,-3.9759,-3.9934,-4.001,-4.0098,-4.0118,-4.0132,-4.0136,-4.0138,-4.0131,-4.0098,-4.0121,-4.0121,-4.0121,-4.0122,-4.0122,0,-3.8598,-3.8683,-3.8778,-3.8917,-3.9,-3.9056,-3.9171,-3.9236,-3.9332,-3.9438,-3.9532,-3.9659,-3.9768,-3.9889,-4.0006,-4.0053,-4.0086,-4.008,-4.0078,-4.0095,-4.0106,-4.0086,-4.0051,-4.0051,-4.0051,-4.0051,-4.0051,-4.0051,-3.86,-3.8698,-3.8766,-3.8908,-3.8993,-3.9103,-3.9163,-3.9249,-3.9335,-3.9472,-3.9564,-3.9642,-3.9754,-3.988,-3.9982,-4.0015,-4.0054,-4.0038,-4.0079,-4.0088,-4.0094,-4.0099,-4.0081,-4.0045,-4.0045,-4.0061,-4.0061,-4.0061]},{"header":{"parameterUnit":"m.s-1","parameterCategory":1,"la1":30.2991,"la2":30.254,"lo1":-89.0895,"lo2":-89.0444,"dy":0.0017,"dx":0.0017,"nx":28,"ny":28,"refTime":"2024-04-08T21:00:00:Z","depth":0,"parameterNumber":3,"parameterNumberName":"V-component_of_WINDS"},"data":[0,0,0,0,0,0,0,0,0,0,0,0,0,0,0,0,0,0,0,0,0,0,0,0,0,0,0,0,0,0,0,0,0,0,0,0,0,0,0,0,0,0,0,0,0,0,0,0,0,0,0,0,0,0,0,0,0,0,10.1786,10.1786,0,10.1839,10.184,10.184,10.1761,10.1759,10.1756,10.1753,10.18,10.1803,10.1807,0,0,0,0,0,0,0,0,0,0,0,0,0,10.1609,10.1613,10.1786,10.1786,10.1787,10.1839,10.184,10.1841,10.1762,10.1758,10.1755,10.1752,10.1798,10.1803,10.1807,0,0,0,0,0,0,0,0,0,0,0,0,0,10.1676,10.1614,10.1786,10.1754,10.1752,10.1839,10.184,10.1841,10.1763,10.1758,10.1754,10.175,10.1797,10.1802,10.1808,10.1926,0,0,10.1825,10.1828,0,0,0,0,0,0,0,0,10.1673,10.1683,10.1758,10.1757,10.1754,10.179,10.1794,10.1869,10.1764,10.1758,10.1753,10.1748,10.1799,10.1804,10.1823,10.1928,10.193,10.1826,10.1829,10.1832,10.1833,0,0,0,0,0,0,0,10.1668,10.168,10.1807,10.1759,10.1757,10.1736,10.1741,10.1808,10.1801,10.1758,10.1753,10.1761,10.1797,10.1818,10.1824,10.193,10.1826,10.1831,10.1834,10.1837,10.2136,10.214,0,0,0,0,0,0,10.1668,10.1677,10.1805,10.1808,10.1703,10.1742,10.1748,10.1782,10.18,10.1799,10.1764,10.1757,10.181,10.1817,10.1825,10.1965,10.1832,10.1837,10.184,10.2131,10.2137,10.2142,0,0,0,0,0,0,10.1665,10.168,10.1803,10.1741,10.1755,10.175,10.1789,10.1785,10.1806,10.1805,10.1802,10.1787,10.1807,10.1817,10.1902,10.1965,10.184,10.1845,10.2126,10.2133,10.2139,10.2245,0,0,0,0,0,0,10.166,10.168,10.1725,10.1743,10.1759,10.1881,10.1793,10.179,10.1817,10.1808,10.1825,10.1824,10.1805,10.1894,10.1908,10.1971,10.1849,10.212,10.2129,10.2137,10.2235,10.2254,10.227,0,0,0,0,0,10.1654,10.175,10.1728,10.1744,10.1816,10.1885,10.1894,10.1872,10.1823,10.1868,10.1867,10.1824,10.1957,10.1904,10.1918,10.1984,10.2116,10.2127,10.2137,10.2228,10.225,10.227,0,0,0,0,0,0,10.1736,10.1752,10.1727,10.1833,10.1859,10.1871,10.1927,10.1896,10.1934,10.1923,10.1892,10.1897,10.1989,10.1995,10.1935,10.2099,10.2028,10.2042,10.2092,10.2114,10.2131,10.2127,10.1854,0,0,0,0,0,10.1767,10.1824,10.1834,10.1926,10.1941,10.1933,10.1961,10.1943,10.1967,10.1976,10.1982,10.2005,10.2052,10.2083,10.2126,10.2237,10.2239,10.2289,10.2307,10.2321,10.2332,10.2392,10.2415,10.2175,10.2175,10.2175,0,0,10.183,10.1846,10.1883,10.1943,10.1961,10.2019,10.1942,10.2005,10.2048,10.1985,10.2067,10.2072,10.2096,10.2195,10.2238,10.2202,10.24,10.2334,10.2345,10.2349,10.2405,10.2428,10.2448,10.2182,10.2181,10.218,0,0,10.1975,10.1994,10.2073,10.2094,10.2124,10.2118,10.2138,10.2157,10.2159,10.2242,10.2197,10.2245,10.2327,10.2346,10.2367,10.2525,10.2486,10.2539,10.2629,10.2688,10.2707,10.2723,10.2779,10.28,10.2551,10.2551,10.2552,0,10.2049,10.2137,10.2117,10.2186,10.2213,10.2164,10.2244,10.2264,10.2305,10.2324,10.2285,10.2388,10.24,10.2504,10.2543,10.2561,10.2582,10.2536,10.2706,10.2723,10.2738,10.2791,10.2812,10.2558,10.2557,10.2556,10.2556,0,10.2227,10.2289,10.2349,10.2395,10.2429,10.2503,10.2493,10.253,10.251,10.2508,10.2593,10.2608,10.2653,10.2677,10.2656,10.2778,10.2755,10.2712,10.2639,10.2767,10.2817,10.2837,10.2567,10.2564,10.2563,10.2561,0,0,10.242,10.2458,10.2481,10.2502,10.2533,10.258,10.2652,10.2701,10.2733,10.2764,10.2822,10.2895,10.2856,10.288,10.2861,10.2913,10.3037,10.2862,10.2863,10.2894,10.3173,10.3205,10.3229,10.3013,10.3017,10.302,10.3171,0,10.2565,10.2693,10.2679,10.28,10.2857,10.2814,10.2876,10.2901,10.2903,10.295,10.295,10.3003,10.2947,10.2961,10.3011,10.3012,10.3093,10.3001,10.3065,10.3068,10.306,10.3255,10.3289,10.343,10.319,10.3194,10.3196,0,10.275,10.2793,10.2921,10.2947,10.297,10.3027,10.3072,10.3119,10.3146,10.3144,10.3173,10.3146,10.3217,10.3145,10.3242,10.318,10.3206,10.3211,10.3216,10.3219,10.3139,10.3263,10.3475,10.3496,10.3226,10.3224,10.3222,0,10.2879,10.2968,10.3057,10.3076,10.3109,10.315,10.3165,10.3189,10.322,10.3259,10.3279,10.3324,10.3349,10.3384,10.3369,10.3318,10.3469,10.3396,10.3467,10.3468,10.3499,10.3497,10.3717,10.3518,10.3518,10.3518,10.3517,0,10.3041,10.3121,10.3116,10.317,10.3259,10.3242,10.3329,10.3338,10.3361,10.3415,10.3379,10.343,10.3409,10.3458,10.3447,10.3529,10.354,10.3539,10.3535,10.3542,10.3542,10.3557,10.3546,10.3523,10.3522,10.3521,10.352,0,10.3198,10.3198,10.3292,10.3318,10.3326,10.339,10.341,10.3461,10.3461,10.3531,10.3545,10.3545,10.3602,10.3592,10.3653,10.3646,10.3749,10.3733,10.3741,10.3736,10.3809,10.3802,10.4045,10.4076,10.3858,10.386,10.3862,0,10.3301,10.3363,10.3397,10.3433,10.3452,10.3509,10.3543,10.3529,10.3565,10.3604,10.3649,10.3704,10.3746,10.3838,10.3842,10.3889,10.3873,10.3956,10.388,10.3886,10.3874,10.387,10.3876,10.397,10.3972,10.3974,10.3976,0,10.3484,10.3483,10.3534,10.3587,10.3629,10.3668,10.3704,10.3734,10.3724,10.3766,10.3826,10.3859,10.3925,10.3979,10.4024,10.4036,10.4004,10.4001,10.402,10.4026,10.4028,10.4028,10.3781,10.3994,10.3992,10.3991,10.399,10.3989,10.3617,10.367,10.3704,10.3763,10.379,10.3825,10.3875,10.3884,10.3935,10.399,10.3978,10.4046,10.4074,10.4132,10.415,10.4201,10.417,10.4198,10.4204,10.4211,10.422,10.4022,10.4209,10.4208,10.4208,10.4207,10.4207,0,10.3797,10.3819,10.3874,10.3928,10.3974,10.3946,10.3984,10.4024,10.4086,10.4116,10.4161,10.423,10.4284,10.4294,10.4344,10.4383,10.437,10.4397,10.4393,10.4396,10.4245,10.4223,10.4407,10.4407,10.4407,10.4407,10.4407,10.4407,10.3897,10.3987,10.399,10.4093,10.4112,10.4181,10.4206,10.4238,10.4263,10.4344,10.439,10.4398,10.442,10.4472,10.452,10.4521,10.4541,10.4574,10.4569,10.4427,10.4407,10.4388,10.4367,10.4578,10.4578,10.4716,10.4718,10.4719]}]]